User: anonymous
Location: Fort Wayne
(41.1310°N, 85.1290°W)
Time: 01:16:22
(UTC-04:00)
Language:

Cosmos 2227 Rocket - Orbit

View from above orbital plane
View from above orbital plane
View from above satellite
View from above satellite

Ground track
Ground track

The orbit data is extracted from the following two-line orbital elements,

1 22285U 92093B   14204.46720355  .00000189  00000-0  12250-3 0  3541
2 22285 071.0209 275.2123 0006158 293.6875 066.3601 14.14910164112638
Epoch (UTC): 23 July 2014 11:12:46
Eccentricity: 0.0006158
inclination: 71.0209°
perigee height: 838 km
apogee height: 847 km
right ascension of ascending node: 275.2123°
argument of perigee: 293.6875°
revolutions per day: 14.14910164
mean anomaly at epoch: 66.3601°
orbit number at epoch: 11263

The dashed part of the orbit path shows where the satellite is in the earth's shadow,  

DLR